Location: Altenst�hlen
(53.5567°N, 8.9425°E)
Time: 20:34:33
(UTC+00:00)

SKYMED 2 - Pass Details

Date: 23 October 2019
Orbit: 622 x 623 km, 97.9° (Epoch: 17 November)

Event Time Altitude Azimuth Distance (km) Brightness Sun altitude
Rises 18:12:13 0° 11° (N) 2,918 7.0 -18.7°
Reaches altitude 10° 18:14:27 10° 7° (N) 2,006 6.2 -19.0°
Maximum altitude 18:18:42 54° 291° (WNW) 761 4.3 -19.6°
Drops below altitude 10° 18:22:55 10° 214° (SW) 1,991 6.5 -20.2°
Sets 18:25:08 0° 210° (SSW) 2,893 7.3 -20.6°
